Time,TemperatureF,DewpointF,PressureIn,WindDirection,WindDirectionDegrees,WindSpeedMPH,WindSpeedGustMPH,Humidity,HourlyPrecipIn,Conditions,Clouds,dailyrainin,SoftwareType,DateUTC
2013-07-31 00:02:00,67.0,62.0,-100.00,East,85,0.0,2.0,83,0.00,,,-99.99,,2013-07-31 04:02:00,
2013-07-31 00:12:00,67.0,62.0,-100.00,ENE,60,0.0,2.0,83,0.00,,,-99.99,,2013-07-31 04:12:00,
2013-07-31 00:22:00,67.0,62.0,-100.00,ENE,65,0.0,1.0,83,0.00,,,-99.99,,2013-07-31 04:22:00,
2013-07-31 00:32:00,67.0,62.0,-100.00,East,90,0.0,1.0,84,0.00,,,-99.99,,2013-07-31 04:32:00,
2013-07-31 01:02:00,67.0,63.0,-100.00,East,100,0.0,1.0,86,0.00,,,-99.99,,2013-07-31 05:02:00,
2013-07-31 01:22:00,67.0,63.0,-100.00,East,85,0.0,1.0,87,0.00,,,-99.99,,2013-07-31 05:22:00,
2013-07-31 01:32:00,67.0,63.0,-100.00,East,85,0.0,1.0,87,0.00,,,-99.99,,2013-07-31 05:32:00,
2013-07-31 01:42:00,67.0,63.0,-100.00,East,100,0.0,1.0,88,0.00,,,-99.99,,2013-07-31 05:42:00,
2013-07-31 01:52:00,67.0,63.0,-100.00,East,100,0.0,1.0,88,0.00,,,-99.99,,2013-07-31 05:52:00,
2013-07-31 02:02:00,67.0,63.0,-100.00,East,80,0.0,2.0,87,0.00,,,-99.99,,2013-07-31 06:02:00,
2013-07-31 02:22:00,67.0,63.0,-100.00,ENE,65,0.0,1.0,88,0.00,,,-99.99,,2013-07-31 06:22:00,
2013-07-31 02:32:00,66.0,63.0,-100.00,East,90,0.0,1.0,89,0.00,,,-99.99,,2013-07-31 06:32:00,
2013-07-31 02:43:00,66.0,63.0,-100.00,East,85,0.0,0.0,89,0.00,,,-99.99,,2013-07-31 06:43:00,
2013-07-31 02:53:00,66.0,63.0,-100.00,East,85,0.0,1.0,89,0.00,,,-99.99,,2013-07-31 06:53:00,
2013-07-31 03:02:00,66.0,63.0,-100.00,East,85,0.0,1.0,89,0.00,,,-99.99,,2013-07-31 07:02:00,
2013-07-31 03:12:00,67.0,63.0,-100.00,East,85,0.0,1.0,89,0.00,,,-99.99,,2013-07-31 07:12:00,
2013-07-31 03:22:00,67.0,63.0,-100.00,East,85,0.0,1.0,89,0.00,,,-99.99,,2013-07-31 07:22:00,
2013-07-31 03:32:00,66.0,64.0,-100.00,East,95,0.0,0.0,90,0.00,,,-99.99,,2013-07-31 07:32:00,
2013-07-31 03:43:00,66.0,64.0,-100.00,East,90,0.0,0.0,90,0.00,,,-99.99,,2013-07-31 07:43:00,
2013-07-31 03:52:00,66.0,64.0,-100.00,ENE,60,0.0,2.0,91,0.00,,,-99.99,,2013-07-31 07:52:00,
2013-07-31 04:02:00,67.0,64.0,-100.00,East,95,0.0,0.0,91,0.00,,,-99.99,,2013-07-31 08:02:00,
2013-07-31 04:22:00,66.0,64.0,-100.00,SE,140,0.0,2.0,91,0.55,,,-99.99,,2013-07-31 08:22:00,
2013-07-31 04:32:00,66.0,64.0,-100.00,East,80,0.0,0.0,92,0.00,,,-99.99,,2013-07-31 08:32:00,
2013-07-31 05:32:00,66.0,64.0,-100.00,ENE,75,0.0,2.0,93,0.00,,,-99.99,,2013-07-31 09:32:00,
2013-07-31 05:43:00,66.0,64.0,-100.00,East,90,0.0,2.0,93,0.00,,,-99.99,,2013-07-31 09:43:00,
2013-07-31 06:02:00,66.0,64.0,-100.00,SSE,150,0.0,3.0,93,0.00,,,-99.99,,2013-07-31 10:02:00,
2013-07-31 06:44:00,67.0,65.0,-100.00,West,265,2.0,4.0,93,0.00,,,-99.99,,2013-07-31 10:44:00,
2013-07-31 07:03:00,68.0,65.0,-100.00,South,175,2.0,6.0,90,0.00,,,-99.99,,2013-07-31 11:03:00,
2013-07-31 07:12:00,68.0,64.0,-100.00,SSE,150,4.0,9.0,84,0.00,,,-99.99,,2013-07-31 11:12:00,
2013-07-31 07:22:00,69.0,63.0,-100.00,SE,130,4.0,9.0,82,0.00,,,-99.99,,2013-07-31 11:22:00,
2013-07-31 07:33:00,69.0,64.0,-100.00,South,175,4.0,8.0,82,0.00,,,-99.99,,2013-07-31 11:33:00,
2013-07-31 07:43:00,70.0,64.0,-100.00,SSE,155,4.0,9.0,82,0.00,,,-99.99,,2013-07-31 11:43:00,
2013-07-31 08:02:00,68.0,65.0,-100.00,SSE,150,4.0,7.0,91,0.00,,,-99.99,,2013-07-31 12:02:00,
2013-07-31 08:43:00,68.0,66.0,-100.00,SSE,155,4.0,9.0,93,1.10,,,-99.99,,2013-07-31 12:43:00,
2013-07-31 09:02:00,67.0,65.0,-100.00,SSE,160,4.0,7.0,93,0.55,,,-99.99,,2013-07-31 13:02:00,
2013-07-31 09:43:00,68.0,66.0,-100.00,SE,145,4.0,8.0,95,0.00,,,-99.99,,2013-07-31 13:43:00,
2013-07-31 09:53:00,68.0,66.0,-100.00,SSE,150,3.0,7.0,94,0.00,,,-99.99,,2013-07-31 13:53:00,
2013-07-31 10:02:00,68.0,66.0,-100.00,SSE,165,4.0,6.0,94,0.00,,,-99.99,,2013-07-31 14:02:00,
2013-07-31 10:12:00,68.0,66.0,-100.00,SSE,165,4.0,6.0,94,0.00,,,-99.99,,2013-07-31 14:12:00,
2013-07-31 10:23:00,69.0,66.0,-100.00,SSE,155,2.0,7.0,92,0.00,,,-99.99,,2013-07-31 14:23:00,
2013-07-31 10:34:00,69.0,66.0,-100.00,SSE,155,3.0,7.0,91,0.00,,,-99.99,,2013-07-31 14:34:00,
2013-07-31 10:43:00,69.0,66.0,-100.00,South,190,2.0,6.0,90,0.00,,,-99.99,,2013-07-31 14:43:00,
2013-07-31 11:02:00,70.0,67.0,-100.00,SSE,165,2.0,7.0,90,0.00,,,-99.99,,2013-07-31 15:02:00,
2013-07-31 11:22:00,71.0,67.0,-100.00,South,180,4.0,7.0,87,0.00,,,-99.99,,2013-07-31 15:22:00,
2013-07-31 11:43:00,71.0,66.0,-100.00,South,170,3.0,7.0,85,0.00,,,-99.99,,2013-07-31 15:43:00,
2013-07-31 11:53:00,71.0,66.0,-100.00,South,180,2.0,9.0,84,0.00,,,-99.99,,2013-07-31 15:53:00,
2013-07-31 12:02:00,71.0,66.0,-100.00,South,170,4.0,7.0,84,0.00,,,-99.99,,2013-07-31 16:02:00,
2013-07-31 12:44:00,73.0,65.0,-100.00,WSW,245,4.0,9.0,78,0.00,,,-99.99,,2013-07-31 16:44:00,
2013-07-31 13:03:00,73.0,65.0,-100.00,WSW,245,4.0,9.0,75,0.00,,,-99.99,,2013-07-31 17:03:00,
2013-07-31 13:43:00,73.0,65.0,-100.00,WSW,255,3.0,6.0,76,0.00,,,-99.99,,2013-07-31 17:43:00,
2013-07-31 14:02:00,72.0,64.0,-100.00,WSW,255,4.0,12.0,77,0.00,,,-99.99,,2013-07-31 18:02:00,
2013-07-31 14:33:00,74.0,65.0,-100.00,SW,225,4.0,9.0,72,0.00,,,-99.99,,2013-07-31 18:33:00,
2013-07-31 14:43:00,73.0,65.0,-100.00,WSW,240,4.0,9.0,74,0.00,,,-99.99,,2013-07-31 18:43:00,
2013-07-31 14:52:00,73.0,65.0,-100.00,WSW,240,4.0,9.0,74,0.00,,,-99.99,,2013-07-31 18:52:00,
2013-07-31 16:03:00,74.0,65.0,-100.00,WSW,245,5.0,10.0,73,0.00,,,-99.99,,2013-07-31 20:03:00,
2013-07-31 16:12:00,73.0,64.0,-100.00,WSW,245,4.0,12.0,74,0.00,,,-99.99,,2013-07-31 20:12:00,
2013-07-31 16:43:00,75.0,65.0,-100.00,South,185,4.0,10.0,70,0.00,,,-99.99,,2013-07-31 20:43:00,
2013-07-31 17:13:00,74.0,65.0,-100.00,West,260,6.0,9.0,72,0.00,,,-99.99,,2013-07-31 21:13:00,
2013-07-31 18:13:00,75.0,65.0,-100.00,SW,235,4.0,6.0,72,0.00,,,-99.99,,2013-07-31 22:13:00,
2013-07-31 18:22:00,75.0,65.0,-100.00,SSW,210,3.0,7.0,71,0.00,,,-99.99,,2013-07-31 22:22:00,
2013-07-31 18:33:00,76.0,65.0,-100.00,South,185,4.0,8.0,68,0.00,,,-99.99,,2013-07-31 22:33:00,
2013-07-31 18:43:00,75.0,65.0,-100.00,South,180,4.0,7.0,71,0.00,,,-99.99,,2013-07-31 22:43:00,
2013-07-31 19:02:00,75.0,65.0,-100.00,WSW,250,6.0,9.0,71,0.00,,,-99.99,,2013-07-31 23:02:00,
2013-07-31 19:22:00,74.0,65.0,-100.00,WSW,255,4.0,9.0,72,0.00,,,-99.99,,2013-07-31 23:22:00,
2013-07-31 19:42:00,74.0,65.0,-100.00,SSW,205,2.0,6.0,73,0.00,,,-99.99,,2013-07-31 23:42:00,
2013-07-31 19:52:00,74.0,65.0,-100.00,SW,225,4.0,7.0,73,0.00,,,-99.99,,2013-07-31 23:52:00,
2013-07-31 20:02:00,74.0,65.0,-100.00,WSW,240,4.0,7.0,74,0.00,,,-99.99,,2013-08-01 00:02:00,
2013-07-31 20:12:00,74.0,65.0,-100.00,SW,220,1.0,5.0,74,0.00,,,-99.99,,2013-08-01 00:12:00,
2013-07-31 20:22:00,73.0,65.0,-100.00,SW,225,2.0,5.0,75,0.00,,,-99.99,,2013-08-01 00:22:00,
2013-07-31 20:32:00,73.0,65.0,-100.00,South,170,2.0,5.0,76,0.00,,,-99.99,,2013-08-01 00:32:00,
2013-07-31 20:43:00,73.0,65.0,-100.00,SW,220,1.0,4.0,77,0.00,,,-99.99,,2013-08-01 00:43:00,
2013-07-31 20:52:00,72.0,65.0,-100.00,WSW,245,2.0,6.0,77,0.00,,,-99.99,,2013-08-01 00:52:00,
2013-07-31 21:03:00,72.0,65.0,-100.00,SW,220,2.0,4.0,77,0.00,,,-99.99,,2013-08-01 01:03:00,
2013-07-31 21:12:00,72.0,65.0,-100.00,West,275,1.0,3.0,77,0.00,,,-99.99,,2013-08-01 01:12:00,
2013-07-31 21:22:00,72.0,65.0,-100.00,SSW,210,1.0,4.0,78,0.00,,,-99.99,,2013-08-01 01:22:00,
2013-07-31 21:33:00,72.0,65.0,-100.00,WSW,250,2.0,4.0,78,0.00,,,-99.99,,2013-08-01 01:33:00,
2013-07-31 21:43:00,72.0,66.0,-100.00,SSW,205,2.0,5.0,80,0.00,,,-99.99,,2013-08-01 01:43:00,
2013-07-31 22:02:00,71.0,66.0,-100.00,South,185,1.0,5.0,82,0.00,,,-99.99,,2013-08-01 02:02:00,
2013-07-31 22:12:00,71.0,66.0,-100.00,South,185,1.0,5.0,82,0.00,,,-99.99,,2013-08-01 02:12:00,
2013-07-31 22:22:00,71.0,66.0,-100.00,South,185,1.0,5.0,82,0.00,,,-99.99,,2013-08-01 02:22:00,
2013-07-31 22:32:00,72.0,66.0,-100.00,SW,215,1.0,6.0,82,0.00,,,-99.99,,2013-08-01 02:32:00,
2013-07-31 22:43:00,71.0,66.0,-100.00,West,265,1.0,3.0,83,0.00,,,-99.99,,2013-08-01 02:43:00,
2013-07-31 23:12:00,71.0,66.0,-100.00,WSW,250,2.0,4.0,83,0.00,,,-99.99,,2013-08-01 03:12:00,
2013-07-31 23:22:00,71.0,66.0,-100.00,WSW,240,2.0,7.0,86,0.00,,,-99.99,,2013-08-01 03:22:00,
2013-07-31 23:32:00,70.0,66.0,-100.00,SW,235,3.0,7.0,88,0.00,,,-99.99,,2013-08-01 03:32:00,
2013-07-31 23:43:00,69.0,67.0,-100.00,WSW,250,2.0,5.0,90,0.00,,,-99.99,,2013-08-01 03:43:00,